Time,TemperatureF,DewpointF,PressureIn,WindDirection,WindDirectionDegrees,WindSpeedMPH,WindSpeedGustMPH,Humidity,HourlyPrecipIn,Conditions,Clouds,dailyrainin,SoftwareType,DateUTC
2013-06-24 00:06:00,61.6,46.0,29.30,ENE,69,1.0,3.0,58,0.00,,,0.00,weatherlink.com 1.10,2013-06-24 08:06:00,
2013-06-24 00:21:00,60.4,46.0,29.30,East,92,1.0,7.0,59,0.00,,,0.00,weatherlink.com 1.10,2013-06-24 08:21:00,
2013-06-24 00:36:00,60.0,46.0,29.30,SE,135,0.0,3.0,60,0.00,,,0.00,weatherlink.com 1.10,2013-06-24 08:36:00,
2013-06-24 00:51:00,59.4,47.0,29.31,SE,136,0.0,1.0,63,0.00,,,0.00,weatherlink.com 1.10,2013-06-24 08:51:00,
2013-06-24 01:06:00,58.7,49.0,29.30,SE,139,0.0,1.0,69,0.00,,,0.00,weatherlink.com 1.10,2013-06-24 09:06:00,
2013-06-24 01:21:00,58.1,48.0,29.30,SE,139,0.0,2.0,69,0.00,,,0.00,weatherlink.com 1.10,2013-06-24 09:21:00,
2013-06-24 01:36:00,58.2,47.0,29.30,SE,139,1.0,1.0,67,0.00,,,0.00,weatherlink.com 1.10,2013-06-24 09:36:00,
2013-06-24 01:51:00,57.9,49.0,29.30,SE,139,1.0,1.0,71,0.00,,,0.00,weatherlink.com 1.10,2013-06-24 09:51:00,
2013-06-24 02:06:00,56.9,48.0,29.30,SE,138,1.0,2.0,73,0.00,,,0.00,weatherlink.com 1.10,2013-06-24 10:06:00,
2013-06-24 02:21:00,56.5,48.0,29.30,SSE,167,1.0,3.0,74,0.00,,,0.00,weatherlink.com 1.10,2013-06-24 10:21:00,
2013-06-24 02:36:00,56.4,49.0,29.31,SSW,192,0.0,1.0,75,0.00,,,0.00,weatherlink.com 1.10,2013-06-24 10:36:00,
2013-06-24 02:51:00,56.3,48.0,29.31,South,191,0.0,0.0,74,0.00,,,0.00,weatherlink.com 1.10,2013-06-24 10:51:00,
2013-06-24 03:06:00,55.9,48.0,29.31,South,191,0.0,1.0,74,0.00,,,0.00,weatherlink.com 1.10,2013-06-24 11:06:00,
2013-06-24 03:21:00,55.5,48.0,29.31,South,191,0.0,1.0,75,0.00,,,0.00,weatherlink.com 1.10,2013-06-24 11:21:00,
2013-06-24 03:36:00,55.4,48.0,29.31,South,191,0.0,1.0,76,0.00,,,0.00,weatherlink.com 1.10,2013-06-24 11:36:00,
2013-06-24 03:51:00,55.3,48.0,29.31,South,183,1.0,2.0,77,0.00,,,0.00,weatherlink.com 1.10,2013-06-24 11:51:00,
2013-06-24 04:21:00,55.5,47.0,29.32,SE,131,0.0,2.0,73,0.00,,,0.00,weatherlink.com 1.10,2013-06-24 12:21:00,
2013-06-24 05:21:00,55.6,49.0,29.33,NNW,342,1.0,4.0,77,0.00,,,0.00,weatherlink.com 1.10,2013-06-24 13:21:00,
2013-06-24 05:51:00,55.5,48.0,29.33,NNE,30,0.0,4.0,75,0.00,,,0.00,weatherlink.com 1.10,2013-06-24 13:51:00,
2013-06-24 06:06:00,55.6,49.0,29.33,SE,137,3.0,4.0,78,0.00,,,0.00,weatherlink.com 1.10,2013-06-24 14:06:00,
2013-06-24 06:21:00,55.6,49.0,29.34,WNW,299,3.0,3.0,79,0.00,,,0.00,weatherlink.com 1.10,2013-06-24 14:21:00,
2013-06-24 06:36:00,56.6,49.0,29.34,WSW,253,3.0,5.0,77,0.00,,,0.00,weatherlink.com 1.10,2013-06-24 14:36:00,
2013-06-24 06:51:00,56.3,49.0,29.34,West,281,0.0,4.0,76,0.00,,,0.00,weatherlink.com 1.10,2013-06-24 14:51:00,
2013-06-24 07:06:00,56.5,49.0,29.35,SW,219,1.0,6.0,75,0.00,,,0.00,weatherlink.com 1.10,2013-06-24 15:06:00,
2013-06-24 07:36:00,56.3,48.0,29.35,SW,223,3.0,6.0,73,0.00,,,0.00,weatherlink.com 1.10,2013-06-24 15:36:00,
2013-06-24 07:51:00,55.9,48.0,29.36,South,174,0.0,3.0,75,0.00,,,0.00,weatherlink.com 1.10,2013-06-24 15:51:00,
2013-06-24 08:06:00,56.0,49.0,29.35,South,172,1.0,2.0,77,0.00,,,0.00,weatherlink.com 1.10,2013-06-24 16:06:00,
2013-06-24 08:21:00,56.1,49.0,29.36,South,172,0.0,2.0,78,0.00,,,0.00,weatherlink.com 1.10,2013-06-24 16:21:00,
2013-06-24 08:36:00,57.0,50.0,29.36,SW,227,2.0,3.0,77,0.00,,,0.00,weatherlink.com 1.10,2013-06-24 16:36:00,
2013-06-24 08:51:00,57.4,49.0,29.35,SW,222,0.0,5.0,73,0.00,,,0.00,weatherlink.com 1.10,2013-06-24 16:51:00,
2013-06-24 09:07:00,57.9,49.0,29.35,WNW,291,0.0,3.0,73,0.00,,,0.00,weatherlink.com 1.10,2013-06-24 17:07:00,
2013-06-24 09:22:00,58.6,50.0,29.34,SW,227,1.0,3.0,72,0.00,,,0.00,weatherlink.com 1.10,2013-06-24 17:22:00,
2013-06-24 09:37:00,58.8,50.0,29.35,NNE,33,0.0,2.0,72,0.00,,,0.00,weatherlink.com 1.10,2013-06-24 17:37:00,
2013-06-24 09:52:00,59.3,50.0,29.35,SSW,202,0.0,1.0,72,0.00,,,0.00,weatherlink.com 1.10,2013-06-24 17:52:00,
2013-06-24 10:07:00,60.0,49.0,29.34,WSW,258,2.0,4.0,68,0.00,,,0.00,weatherlink.com 1.10,2013-06-24 18:07:00,
2013-06-24 10:37:00,60.3,50.0,29.35,NW,310,1.0,5.0,68,0.00,,,0.00,weatherlink.com 1.10,2013-06-24 18:37:00,
2013-06-24 10:52:00,61.4,50.0,29.35,NNW,343,0.0,4.0,66,0.00,,,0.00,weatherlink.com 1.10,2013-06-24 18:52:00,
2013-06-24 11:07:00,61.1,50.0,29.35,WNW,295,0.0,5.0,66,0.00,,,0.00,weatherlink.com 1.10,2013-06-24 19:07:00,
2013-06-24 11:22:00,62.3,50.0,29.34,NNE,23,2.0,5.0,64,0.00,,,0.00,weatherlink.com 1.10,2013-06-24 19:22:00,
2013-06-24 11:37:00,63.0,49.0,29.34,NW,304,0.0,6.0,61,0.00,,,0.00,weatherlink.com 1.10,2013-06-24 19:37:00,
2013-06-24 11:52:00,64.6,50.0,29.34,West,270,1.0,5.0,59,0.00,,,0.00,weatherlink.com 1.10,2013-06-24 19:52:00,
2013-06-24 12:22:00,65.9,50.0,29.34,North,5,1.0,6.0,56,0.00,,,0.00,weatherlink.com 1.10,2013-06-24 20:22:00,
2013-06-24 12:52:00,65.3,49.0,29.34,NE,56,3.0,6.0,56,0.00,,,0.00,weatherlink.com 1.10,2013-06-24 20:52:00,
2013-06-24 13:07:00,65.2,48.0,29.34,NW,313,3.0,7.0,54,0.00,,,0.00,weatherlink.com 1.10,2013-06-24 21:07:00,
2013-06-24 13:22:00,66.3,48.0,29.34,NNE,18,2.0,8.0,53,0.00,,,0.00,weatherlink.com 1.10,2013-06-24 21:22:00,
2013-06-24 13:37:00,66.7,49.0,29.34,NNW,343,4.0,9.0,54,0.00,,,0.00,weatherlink.com 1.10,2013-06-24 21:37:00,
2013-06-24 13:52:00,66.6,50.0,29.34,NE,52,1.0,8.0,56,0.00,,,0.00,weatherlink.com 1.10,2013-06-24 21:52:00,
2013-06-24 14:07:00,67.1,50.0,29.33,NNW,337,1.0,6.0,54,0.00,,,0.00,weatherlink.com 1.10,2013-06-24 22:07:00,
2013-06-24 14:22:00,67.6,50.0,29.33,NE,45,3.0,6.0,53,0.00,,,0.00,weatherlink.com 1.10,2013-06-24 22:22:00,
2013-06-24 14:37:00,67.8,51.0,29.33,NNE,30,3.0,6.0,55,0.00,,,0.00,weatherlink.com 1.10,2013-06-24 22:37:00,
2013-06-24 15:07:00,68.9,51.0,29.32,NNE,23,1.0,7.0,54,0.00,,,0.00,weatherlink.com 1.10,2013-06-24 23:07:00,
2013-06-24 15:22:00,68.3,51.0,29.33,NE,50,4.0,10.0,54,0.00,,,0.00,weatherlink.com 1.10,2013-06-24 23:22:00,
2013-06-24 15:37:00,67.7,51.0,29.32,NW,322,5.0,7.0,55,0.00,,,0.00,weatherlink.com 1.10,2013-06-24 23:37:00,
2013-06-24 15:52:00,68.9,51.0,29.32,NNW,338,2.0,6.0,54,0.00,,,0.00,weatherlink.com 1.10,2013-06-24 23:52:00,
2013-06-24 16:07:00,68.6,51.0,29.32,NNW,344,3.0,6.0,53,0.00,,,0.00,weatherlink.com 1.10,2013-06-25 00:07:00,
2013-06-24 16:22:00,69.5,50.0,29.32,North,4,5.0,7.0,50,0.00,,,0.00,weatherlink.com 1.10,2013-06-25 00:22:00,
2013-06-24 16:37:00,70.4,50.0,29.32,NNW,334,4.0,7.0,49,0.00,,,0.00,weatherlink.com 1.10,2013-06-25 00:37:00,
2013-06-24 16:52:00,68.8,48.0,29.31,NNW,341,4.0,8.0,48,0.00,,,0.00,weatherlink.com 1.10,2013-06-25 00:52:00,
2013-06-24 17:07:00,68.8,47.0,29.32,NE,35,5.0,10.0,46,0.00,,,0.00,weatherlink.com 1.10,2013-06-25 01:07:00,
2013-06-24 17:22:00,69.0,47.0,29.31,NNE,13,3.0,9.0,46,0.00,,,0.00,weatherlink.com 1.10,2013-06-25 01:22:00,
2013-06-24 17:52:00,69.5,48.0,29.31,NE,40,5.0,6.0,47,0.00,,,0.00,weatherlink.com 1.10,2013-06-25 01:52:00,
2013-06-24 18:07:00,69.8,49.0,29.31,NE,49,3.0,7.0,47,0.00,,,0.00,weatherlink.com 1.10,2013-06-25 02:07:00,
2013-06-24 18:22:00,69.8,49.0,29.30,NW,312,0.0,7.0,48,0.00,,,0.00,weatherlink.com 1.10,2013-06-25 02:22:00,
2013-06-24 18:37:00,70.4,49.0,29.30,NNE,29,3.0,5.0,47,0.00,,,0.00,weatherlink.com 1.10,2013-06-25 02:37:00,
2013-06-24 19:07:00,69.9,50.0,29.30,NNE,23,2.0,5.0,50,0.00,,,0.00,weatherlink.com 1.10,2013-06-25 03:07:00,
2013-06-24 19:22:00,70.3,50.0,29.30,NNW,337,0.0,5.0,49,0.00,,,0.00,weatherlink.com 1.10,2013-06-25 03:22:00,
2013-06-24 19:37:00,70.3,50.0,29.29,North,8,3.0,6.0,49,0.00,,,0.00,weatherlink.com 1.10,2013-06-25 03:37:00,
2013-06-24 19:52:00,70.4,50.0,29.29,NNE,13,2.0,7.0,49,0.00,,,0.00,weatherlink.com 1.10,2013-06-25 03:52:00,
2013-06-24 20:07:00,71.0,50.0,29.29,NW,316,1.0,5.0,47,0.00,,,0.00,weatherlink.com 1.10,2013-06-25 04:07:00,
2013-06-24 20:22:00,71.7,50.0,29.29,NW,310,3.0,6.0,47,0.00,,,0.00,weatherlink.com 1.10,2013-06-25 04:22:00,
2013-06-24 20:37:00,71.6,50.0,29.29,NW,320,1.0,5.0,47,0.00,,,0.00,weatherlink.com 1.10,2013-06-25 04:37:00,
2013-06-24 20:52:00,70.8,49.0,29.29,NNW,327,0.0,6.0,46,0.00,,,0.00,weatherlink.com 1.10,2013-06-25 04:52:00,
2013-06-24 21:07:00,70.8,49.0,29.29,NW,323,1.0,4.0,46,0.00,,,0.00,weatherlink.com 1.10,2013-06-25 05:07:00,
2013-06-24 21:23:00,70.4,48.0,29.29,NW,312,3.0,5.0,45,0.00,,,0.00,weatherlink.com 1.10,2013-06-25 05:23:00,
2013-06-24 21:38:00,69.5,49.0,29.29,North,358,0.0,3.0,48,0.00,,,0.00,weatherlink.com 1.10,2013-06-25 05:38:00,
2013-06-24 21:53:00,69.7,48.0,29.29,WNW,297,3.0,4.0,46,0.00,,,0.00,weatherlink.com 1.10,2013-06-25 05:53:00,
2013-06-24 22:08:00,68.4,48.0,29.29,SSW,198,0.0,4.0,49,0.00,,,0.00,weatherlink.com 1.10,2013-06-25 06:08:00,
2013-06-24 22:23:00,66.3,48.0,29.29,SW,235,2.0,4.0,52,0.00,,,0.00,weatherlink.com 1.10,2013-06-25 06:23:00,
2013-06-24 22:38:00,65.0,48.0,29.29,SW,225,0.0,3.0,55,0.00,,,0.00,weatherlink.com 1.10,2013-06-25 06:38:00,
2013-06-24 22:53:00,64.0,48.0,29.29,WSW,238,1.0,4.0,56,0.00,,,0.00,weatherlink.com 1.10,2013-06-25 06:53:00,
2013-06-24 23:08:00,63.3,48.0,29.30,SW,233,1.0,4.0,57,0.00,,,0.00,weatherlink.com 1.10,2013-06-25 07:08:00,
2013-06-24 23:23:00,62.7,47.0,29.30,SW,235,1.0,4.0,58,0.00,,,0.00,weatherlink.com 1.10,2013-06-25 07:23:00,
2013-06-24 23:38:00,62.2,47.0,29.30,SW,227,1.0,3.0,59,0.00,,,0.00,weatherlink.com 1.10,2013-06-25 07:38:00,
2013-06-24 23:53:00,61.6,48.0,29.30,SW,227,1.0,2.0,61,0.00,,,0.00,weatherlink.com 1.10,2013-06-25 07:53:00,